Location: Archemont
(49.1579°N, 1.7598°E)
Time: 13:01:38
(UTC+00:00)

S-56A Canister/Altair - Pass Details

Date: 24 April 2024
Orbit: 638 x 2488 km, 38.9° (Epoch: 22 May)

Event Time Altitude Azimuth Distance (km) Brightness Sun altitude
Rises 20:48:14 0° 265° (W) 3,783 11.7 -15.7°
Reaches altitude 10° 20:51:23 10° 249° (WSW) 3,091 10.9 -16.1°
Maximum altitude 20:56:45 20° 205° (SSW) 2,819 10.2 -16.7°
Enters shadow 21:01:41 14° 171° (S) 3,622 10.5 -17.3°
Drops below altitude 10° 21:03:36 10° 163° (SSE) 4,083 - -17.5°
Sets 21:08:40 0° 150° (SSE) 5,426 - -18.1°
